Weather Roundup
Issued by NWS Chicago, IL

Home | Current Version | Previous Version | Graphics & Text | Print | Product List | Glossary On
Versions: 1 2 3 4 5 6 7 8 9 10 11 12 13 14 15 16 17 18 19 20 21 22 23 24 25 26 27 28 29 30 31 32 33 34 35 36 37 38 39 40 41 42 43 44 45 46 47 48 49 50
000
NZUS59 KLOT 230408
HRRLOT

CHICAGO AREA WEATHER ROUNDUP
NATIONAL WEATHER SERVICE CHICAGO/ROMEOVILLE IL
1100 PM CDT FRI MAY 22 2015

NOTE: "FAIR" INDICATES FEW OR NO CLOUDS BELOW 12,000 FEET WITH NO
SIGNIFICANT WEATHER AND/OR OBSTRUCTIONS TO VISIBILITY.

* THESE STATIONS ARE NOT UNDER NWS QUALITY CONTROL. THEY ALSO MAY NOT
  REPORT WEATHER SUCH AS PRECIPITATION OR FOG.

ILZ005-006-012>014-019>023-230500-
NORTHEAST ILLINOIS

CITY           SKY/WX    TMP DP  RH WIND       PRES   REMARKS
OHARE          CLOUDY    52  32  46 E7        30.29R
MIDWAY         MOCLDY    56  35  45 E10       30.29S
AURORA         CLOUDY    53  32  44 E8        30.29R
LANSING*       MOCLDY    53  35  50 CALM      30.29S
JOLIET*        CLOUDY    55  37  52 E3        30.28S
WAUKEGAN       CLOUDY    46  32  58 CALM      30.29S
DUPAGE AIRPORT CLOUDY    53  31  42 E5        30.28S
WHEELING       CLOUDY    48  32  53 S5        30.32R
KANKAKEE*      CLOUDY    55  42  62 CALM      30.29R
MORRIS*        CLOUDY    56  34  43 E3        30.25R
LEWIS AIRPORT* CLOUDY    52  35  52 E6        30.28S
NORTHERLY IS     N/A     51  39  63 E5          N/A
$$

WIZ051-052-058>065-066-070>072-230500-
SOUTHEAST WISCONSIN

CITY           SKY/WX    TMP DP  RH WIND       PRES   REMARKS
MILWAUKEE      MOCLDY    49  27  42 S6        30.29S
KENOSHA*       CLOUDY    47  31  53 SE6       30.29F
RACINE*        CLOUDY    46  32  58 S5        30.31S
BURLINGTON     CLOUDY    46  28  49 CALM      30.29S
WAUKESHA       MOCLDY    46  27  46 S3        30.30S
WEST BEND      MOCLDY    45  28  53 CALM      30.28S
$$

INZ001>003-010>013-019-020-230500-
NORTHWEST INDIANA

CITY           SKY/WX    TMP DP  RH WIND       PRES   REMARKS
GARY*          MOCLDY    51  47  84 CALM      30.30S
MICHIGAN CITY* NOT AVBL
RENSSELAER*    NOT AVBL
VALPARAISO     CLOUDY    51  39  63 E6        30.30S
$$

LMZ740>746-230500-
SOUTHERN LAKE MICHIGAN

STATION/POSITION TIME  SKY/WX   TEMP WIND        PRES    VSBY
                                AIR  DIR/SP/G
                 (UTC)          (F)  (DEG/KT/KT) (MB)    (MI)
HARRISON CRIB    0300            50   70/ 10/ 12   N/A
BURNHAM HARBOR   0400            51   70/  3/  8   N/A
CALUMET HARBOR   0300            53   60/  6/  8   N/A
BURNS HARBOR     0300            56   90/  7/  8 1026.1R
MICHIGAN CITY    0315            55   50/  7/  7   N/A
$$

ABBREVIATIONS USED IN REMARKS
   TC - TEMPERATURE IN CELSIUS
  WCI - WIND CHILL INDEX
   HX - HEAT INDEX
  VSB - VISIBILITY
$$


USA.gov is the U.S. government's official web portal to all federal, state and local government web resources and services.